QPF
0.25 0.25 0.21 0.14 0.08 0.04 0.02 0.02 0.01 0.00 0.00 0.00 0.00 0.00 0.00 0.00 0.00 0.00 0.00 0.00 0.00 0.00 0.00 0.00 0.00 0.00 0.00 0.00 0.00 0.00 0.00 0.00 0.00 0.00 0.00 0.00 0.00 0.00 0.00 0.00 0.00 0.00 0.00 0.00
0.24 0.20 0.09 0.06 0.08 0.08 0.05 0.03 0.02 0.01 0.00 0.00 0.00 0.00 0.00 0.00 0.00 0.00 0.00 0.00 0.00 0.00 0.00 0.00 0.00 0.00 0.00 0.00 0.00 0.00 0.00 0.00 0.00 0.00 0.00 0.00 0.00 0.00 0.00 0.00 0.00 0.00 0.00 0.00
0.15 0.11 0.06 0.06 0.08 0.09 0.08 0.05 0.03 0.02 0.01 0.01 0.01 0.00 0.00 0.00 0.00 0.00 0.00 0.00 0.00 0.00 0.00 0.00 0.00 0.00 0.00 0.00 0.00 0.00 0.00 0.00 0.00 0.00 0.00 0.00 0.00 0.00 0.00 0.00 0.00 0.00 0.00 0.00
0.14 0.08 0.06 0.08 0.08 0.08 0.08 0.04 0.03 0.03 0.04 0.03 0.02 0.01 0.00 0.00 0.00 0.00 0.00 0.00 0.00 0.00 0.00 0.00 0.00 0.00 0.00 0.00 0.00 0.00 0.00 0.00 0.00 0.00 0.00 0.00 0.00 0.00 0.00 0.00 0.00 0.00 0.00 0.00
0.14 0.08 0.06 0.08 0.07 0.06 0.06 0.04 0.04 0.05 0.07 0.08 0.06 0.03 0.01 0.00 0.00 0.00 0.00 0.00 0.00 0.00 0.00 0.00 0.00 0.00 0.00 0.00 0.00 0.00 0.00 0.00 0.00 0.00 0.00 0.00 0.00 0.00 0.00 0.00 0.00 0.00 0.00 0.00
0.09 0.06 0.06 0.06 0.05 0.06 0.09 0.08 0.09 0.10 0.14 0.17 0.07 0.03 0.01 0.00 0.00 0.00 0.00 0.00 0.00 0.00 0.00 0.00 0.00 0.00 0.00 0.00 0.00 0.00 0.00 0.00 0.00 0.00 0.00 0.00 0.00 0.00 0.00 0.00 0.00 0.00 0.00 0.00
0.13 0.08 0.07 0.06 0.07 0.09 0.13 0.16 0.24 0.27 0.28 0.18 0.04 0.02 0.01 0.00 0.00 0.00 0.00 0.00 0.00 0.00 0.00 0.00 0.00 0.00 0.00 0.00 0.00 0.00 0.00 0.00 0.00 0.00 0.00 0.00 0.00 0.00 0.00 0.00 0.00 0.00 0.00 0.00
0.11 0.09 0.05 0.04 0.05 0.07 0.09 0.12 0.18 0.19 0.13 0.05 0.01 0.01 0.00 0.00 0.00 0.00 0.00 0.00 0.00 0.00 0.00 0.00 0.00 0.00 0.00 0.00 0.00 0.00 0.00 0.00 0.00 0.00 0.00 0.00 0.00 0.00 0.00 0.00 0.00 0.00 0.00 0.00
0.06 0.06 0.02 0.02 0.01 0.03 0.07 0.10 0.10 0.12 0.10 0.06 0.02 0.01 0.00 0.00 0.00 0.00 0.00 0.00 0.00 0.00 0.00 0.00 0.00 0.00 0.00 0.00 0.00 0.00 0.00 0.00 0.00 0.00 0.00 0.00 0.00 0.00 0.00 0.00 0.00 0.00 0.00 0.00
0.04 0.04 0.03 0.02 0.03 0.04 0.05 0.10 0.14 0.23 0.25 0.13 0.04 0.01 0.00 0.00 0.00 0.00 0.00 0.00 0.00 0.00 0.00 0.00 0.00 0.00 0.00 0.00 0.00 0.00 0.00 0.00 0.00 0.00 0.00 0.00 0.00 0.00 0.00 0.00 0.00 0.00 0.00 0.00
0.05 0.05 0.04 0.03 0.05 0.05 0.05 0.08 0.15 0.22 0.22 0.14 0.05 0.01 0.00 0.00 0.00 0.00 0.00 0.00 0.00 0.00 0.00 0.00 0.00 0.00 0.00 0.00 0.00 0.00 0.00 0.00 0.00 0.00 0.00 0.00 0.00 0.00 0.00 0.00 0.00 0.00 0.00 0.00
0.06 0.07 0.06 0.03 0.02 0.02 0.04 0.04 0.08 0.16 0.18 0.12 0.07 0.02 0.00 0.00 0.00 0.00 0.00 0.00 0.00 0.00 0.00 0.00 0.00 0.00 0.00 0.00 0.00 0.00 0.00 0.00 0.00 0.00 0.00 0.00 0.00 0.00 0.00 0.00 0.00 0.00 0.00 0.00
0.07 0.12 0.13 0.08 0.05 0.04 0.05 0.04 0.04 0.07 0.11 0.12 0.11 0.04 0.00 0.00 0.00 0.00 0.00 0.00 0.00 0.00 0.00 0.00 0.00 0.00 0.00 0.00 0.00 0.00 0.00 0.00 0.00 0.00 0.00 0.00 0.00 0.00 0.00 0.00 0.00 0.00 0.00 0.00
0.09 0.11 0.10 0.07 0.04 0.02 0.03 0.03 0.03 0.06 0.12 0.11 0.06 0.02 0.00 0.00 0.00 0.00 0.00 0.00 0.00 0.00 0.00 0.00 0.00 0.00 0.00 0.00 0.00 0.00 0.00 0.00 0.00 0.00 0.00 0.00 0.00 0.00 0.00 0.00 0.00 0.00 0.00 0.00
0.12 0.13 0.08 0.04 0.03 0.03 0.03 0.04 0.04 0.05 0.06 0.06 0.03 0.01 0.00 0.00 0.00 0.00 0.00 0.00 0.00 0.00 0.00 0.00 0.00 0.00 0.00 0.00 0.00 0.00 0.00 0.00 0.00 0.00 0.00 0.00 0.00 0.00 0.00 0.00 0.00 0.00 0.00 0.00
0.10 0.10 0.07 0.06 0.04 0.04 0.04 0.02 0.03 0.04 0.04 0.04 0.03 0.01 0.00 0.00 0.00 0.00 0.00 0.00 0.00 0.00 0.00 0.00 0.00 0.00 0.00 0.00 0.00 0.00 0.00 0.00 0.00 0.00 0.00 0.00 0.00 0.00 0.00 0.00 0.00 0.00 0.00 0.00
0.06 0.08 0.06 0.05 0.03 0.05 0.06 0.02 0.01 0.02 0.02 0.02 0.02 0.01 0.00 0.00 0.00 0.00 0.00 0.00 0.00 0.00 0.00 0.00 0.00 0.00 0.00 0.00 0.00 0.00 0.00 0.00 0.00 0.00 0.00 0.00 0.00 0.00 0.00 0.00 0.00 0.00 0.00 0.00
0.03 0.05 0.07 0.06 0.05 0.07 0.03 0.01 0.00 0.01 0.01 0.01 0.01 0.00 0.00 0.00 0.00 0.00 0.00 0.00 0.00 0.00 0.00 0.00 0.00 0.00 0.00 0.00 0.00 0.00 0.00 0.00 0.00 0.00 0.00 0.00 0.00 0.00 0.00 0.00 0.00 0.00 0.00 0.00
0.01 0.03 0.06 0.06 0.05 0.03 0.01 0.01 0.00 0.00 0.00 0.00 0.00 0.00 0.00 0.00 0.00 0.00 0.00 0.00 0.00 0.00 0.00 0.00 0.00 0.00 0.00 0.00 0.00 0.00 0.00 0.00 0.00 0.00 0.00 0.00 0.00 0.00 0.00 0.00 0.00 0.00 0.00 0.00
0.03 0.03 0.04 0.04 0.04 0.02 0.00 0.00 0.00 0.01 0.01 0.01 0.01 0.00 0.00 0.00 0.00 0.00 0.00 0.00 0.00 0.00 0.00 0.00 0.00 0.00 0.00 0.00 0.00 0.00 0.00 0.00 0.00 0.00 0.00 0.00 0.00 0.00 0.00 0.00 0.00 0.00 0.00 0.00
0.05 0.06 0.05 0.03 0.03 0.01 0.00 0.00 0.00 0.02 0.02 0.01 0.01 0.00 0.00 0.00 0.00 0.00 0.00 0.00 0.00 0.00 0.00 0.00 0.00 0.00 0.00 0.00 0.00 0.00 0.00 0.00 0.00 0.00 0.00 0.00 0.00 0.00 0.00 0.00 0.00 0.00 0.00 0.00
0.02 0.03 0.03 0.03 0.04 0.01 0.00 0.00 0.01 0.02 0.01 0.00 0.00 0.00 0.00 0.00 0.00 0.00 0.00 0.00 0.00 0.00 0.00 0.00 0.00 0.00 0.00 0.00 0.00 0.00 0.00 0.00 0.00 0.00 0.00 0.00 0.00 0.00 0.00 0.00 0.00 0.00 0.00 0.00
0.01 0.02 0.02 0.02 0.02 0.01 0.01 0.01 0.01 0.01 0.01 0.01 0.01 0.01 0.01 0.01 0.00 0.00 0.00 0.00 0.00 0.00 0.00 0.00 0.00 0.00 0.00 0.00 0.00 0.00 0.00 0.00 0.00 0.00 0.00 0.00 0.00 0.00 0.00 0.00 0.00 0.00 0.00 0.00
0.01 0.01 0.02 0.02 0.01 0.01 0.01 0.01 0.01 0.01 0.01 0.01 0.01 0.01 0.01 0.01 0.01 0.00 0.00 0.00 0.00 0.00 0.00 0.00 0.00 0.00 0.00 0.01 0.00 0.00 0.00 0.00 0.00 0.00 0.00 0.00 0.00 0.00 0.00 0.00 0.00 0.00 0.00 0.00
0.01 0.01 0.02 0.02 0.01 0.01 0.01 0.01 0.01 0.01 0.01 0.01 0.01 0.01 0.02 0.02 0.01 0.01 0.01 0.01 0.01 0.01 0.01 0.01 0.01 0.01 0.01 0.01 0.01 0.01 0.00 0.00 0.00 0.00 0.00 0.00 0.00 0.00 0.00 0.00 0.00 0.00 0.00 0.00
0.00 0.01 0.01 0.02 0.01 0.02 0.01 0.02 0.03 0.03 0.03 0.02 0.02 0.01 0.02 0.02 0.02 0.01 0.01 0.01 0.01 0.01 0.01 0.01 0.01 0.01 0.01 0.01 0.01 0.01 0.01 0.01 0.01 0.00 0.00 0.00 0.00 0.00 0.00 0.00 0.00 0.01 0.01 0.01
MSLP
1016.83 1016.92 1016.90 1016.83 1016.78 1016.81 1016.96 1017.21 1017.54 1017.88 1018.18 1018.37 1018.41 1018.30 1018.05 1017.71 1017.34 1016.99 1016.72 1016.56 1016.52 1016.58 1016.72 1016.91 1017.15 1017.40 1017.68 1017.99 1018.33 1018.70 1019.11 1019.55 1019.98 1020.40 1020.77 1021.10 1021.37 1021.60 1021.79 1021.97 1022.16 1022.36 1022.59 1022.83
1016.51 1016.60 1016.60 1016.58 1016.60 1016.71 1016.92 1017.24 1017.60 1017.95 1018.23 1018.36 1018.33 1018.13 1017.79 1017.35 1016.90 1016.49 1016.16 1015.96 1015.88 1015.90 1016.01 1016.16 1016.35 1016.55 1016.78 1017.03 1017.32 1017.67 1018.06 1018.49 1018.95 1019.39 1019.81 1020.18 1020.48 1020.74 1020.95 1021.13 1021.32 1021.52 1021.75 1022.02
1016.13 1016.28 1016.37 1016.45 1016.58 1016.80 1017.11 1017.48 1017.86 1018.18 1018.39 1018.42 1018.26 1017.93 1017.46 1016.91 1016.37 1015.89 1015.52 1015.27 1015.16 1015.16 1015.23 1015.35 1015.49 1015.63 1015.80 1015.99 1016.23 1016.54 1016.91 1017.34 1017.80 1018.26 1018.70 1019.09 1019.42 1019.70 1019.92 1020.12 1020.31 1020.53 1020.78 1021.07
1015.67 1015.92 1016.13 1016.36 1016.64 1017.00 1017.41 1017.83 1018.22 1018.49 1018.59 1018.48 1018.17 1017.68 1017.06 1016.39 1015.76 1015.21 1014.79 1014.52 1014.39 1014.37 1014.41 1014.49 1014.58 1014.68 1014.79 1014.93 1015.12 1015.39 1015.73 1016.14 1016.59 1017.05 1017.49 1017.89 1018.23 1018.51 1018.74 1018.95 1019.16 1019.40 1019.68 1020.01
1015.09 1015.45 1015.81 1016.20 1016.65 1017.15 1017.67 1018.15 1018.53 1018.73 1018.71 1018.46 1017.99 1017.34 1016.58 1015.80 1015.08 1014.48 1014.03 1013.75 1013.60 1013.56 1013.59 1013.64 1013.69 1013.73 1013.79 1013.88 1014.03 1014.26 1014.57 1014.95 1015.38 1015.83 1016.26 1016.64 1016.97 1017.24 1017.47 1017.68 1017.90 1018.16 1018.46 1018.82
1014.35 1014.81 1015.31 1015.87 1016.48 1017.13 1017.75 1018.29 1018.65 1018.79 1018.67 1018.28 1017.67 1016.88 1016.01 1015.15 1014.37 1013.74 1013.29 1013.00 1012.86 1012.81 1012.82 1012.84 1012.85 1012.85 1012.87 1012.91 1013.02 1013.21 1013.49 1013.84 1014.23 1014.65 1015.04 1015.39 1015.68 1015.92 1016.13 1016.34 1016.56 1016.83 1017.17 1017.56
1013.44 1013.98 1014.59 1015.29 1016.05 1016.83 1017.55 1018.13 1018.49 1018.58 1018.38 1017.89 1017.17 1016.30 1015.36 1014.46 1013.67 1013.05 1012.61 1012.35 1012.21 1012.17 1012.16 1012.15 1012.12 1012.08 1012.05 1012.05 1012.12 1012.27 1012.51 1012.81 1013.17 1013.53 1013.87 1014.17 1014.41 1014.61 1014.79 1014.97 1015.19 1015.47 1015.82 1016.23
1012.40 1012.98 1013.68 1014.48 1015.35 1016.23 1017.03 1017.64 1018.01 1018.07 1017.81 1017.27 1016.50 1015.59 1014.65 1013.76 1013.01 1012.44 1012.05 1011.82 1011.71 1011.66 1011.64 1011.59 1011.52 1011.43 1011.35 1011.30 1011.32 1011.42 1011.62 1011.88 1012.18 1012.49 1012.77 1013.01 1013.19 1013.34 1013.47 1013.62 1013.82 1014.10 1014.46 1014.89
1011.32 1011.92 1012.66 1013.53 1014.48 1015.42 1016.26 1016.90 1017.26 1017.31 1017.03 1016.47 1015.70 1014.81 1013.91 1013.09 1012.42 1011.92 1011.60 1011.43 1011.35 1011.31 1011.26 1011.18 1011.05 1010.90 1010.75 1010.64 1010.60 1010.65 1010.80 1011.01 1011.26 1011.51 1011.73 1011.90 1012.02 1012.11 1012.19 1012.30 1012.48 1012.74 1013.10 1013.55
1010.35 1010.94 1011.71 1012.61 1013.59 1014.55 1015.40 1016.04 1016.39 1016.41 1016.12 1015.57 1014.83 1014.00 1013.18 1012.46 1011.90 1011.51 1011.28 1011.17 1011.12 1011.09 1011.01 1010.87 1010.68 1010.45 1010.22 1010.04 1009.93 1009.92 1010.01 1010.17 1010.36 1010.56 1010.72 1010.84 1010.90 1010.94 1010.97 1011.04 1011.19 1011.43 1011.79 1012.24
1009.65 1010.24 1011.01 1011.92 1012.89 1013.83 1014.65 1015.24 1015.54 1015.53 1015.22 1014.67 1013.97 1013.22 1012.50 1011.90 1011.46 1011.18 1011.05 1011.00 1010.99 1010.95 1010.84 1010.65 1010.37 1010.06 1009.74 1009.47 1009.28 1009.20 1009.22 1009.32 1009.47 1009.62 1009.74 1009.81 1009.83 1009.82 1009.82 1009.85 1009.96 1010.19 1010.53 1010.98
1009.36 1009.96 1010.73 1011.61 1012.55 1013.43 1014.17 1014.67 1014.88 1014.80 1014.45 1013.89 1013.22 1012.53 1011.91 1011.42 1011.09 1010.93 1010.88 1010.90 1010.91 1010.86 1010.71 1010.45 1010.09 1009.68 1009.26 1008.89 1008.61 1008.45 1008.40 1008.45 1008.55 1008.67 1008.76 1008.81 1008.81 1008.78 1008.74 1008.75 1008.83 1009.03 1009.34 1009.78
1009.52 1010.15 1010.91 1011.77 1012.63 1013.42 1014.03 1014.40 1014.50 1014.31 1013.89 1013.30 1012.63 1011.98 1011.43 1011.03 1010.81 1010.73 1010.75 1010.82 1010.85 1010.79 1010.59 1010.26 1009.82 1009.30 1008.78 1008.30 1007.92 1007.67 1007.55 1007.55 1007.61 1007.71 1007.79 1007.84 1007.84 1007.81 1007.76 1007.75 1007.82 1007.98 1008.26 1008.66
1010.10 1010.76 1011.53 1012.33 1013.10 1013.76 1014.22 1014.44 1014.38 1014.07 1013.55 1012.91 1012.23 1011.60 1011.10 1010.76 1010.61 1010.60 1010.68 1010.77 1010.80 1010.72 1010.48 1010.08 1009.54 1008.93 1008.29 1007.71 1007.23 1006.88 1006.69 1006.63 1006.66 1006.74 1006.83 1006.90 1006.93 1006.92 1006.89 1006.88 1006.93 1007.07 1007.31 1007.67
1010.95 1011.66 1012.41 1013.15 1013.81 1014.32 1014.62 1014.66 1014.45 1014.00 1013.39 1012.69 1011.99 1011.38 1010.91 1010.63 1010.52 1010.55 1010.66 1010.76 1010.79 1010.68 1010.38 1009.91 1009.29 1008.57 1007.83 1007.13 1006.54 1006.10 1005.83 1005.71 1005.71 1005.79 1005.90 1006.00 1006.07 1006.10 1006.11 1006.13 1006.18 1006.30 1006.50 1006.81
1011.90 1012.63 1013.34 1013.99 1014.53 1014.88 1015.02 1014.91 1014.56 1014.02 1013.34 1012.60 1011.90 1011.30 1010.87 1010.62 1010.55 1010.60 1010.72 1010.82 1010.82 1010.67 1010.32 1009.78 1009.07 1008.26 1007.41 1006.60 1005.90 1005.35 1004.99 1004.80 1004.77 1004.84 1004.97 1005.12 1005.25 1005.35 1005.42 1005.48 1005.56 1005.67 1005.85 1006.11
1012.74 1013.44 1014.08 1014.62 1015.02 1015.24 1015.24 1015.01 1014.58 1013.98 1013.28 1012.56 1011.90 1011.35 1010.96 1010.75 1010.71 1010.77 1010.88 1010.96 1010.92 1010.72 1010.31 1009.70 1008.91 1008.00 1007.04 1006.12 1005.31 1004.65 1004.19 1003.93 1003.85 1003.90 1004.05 1004.25 1004.45 1004.63 1004.79 1004.91 1005.03 1005.17 1005.34 1005.57
1013.30 1013.91 1014.44 1014.85 1015.12 1015.21 1015.11 1014.83 1014.37 1013.80 1013.16 1012.52 1011.94 1011.47 1011.15 1011.00 1010.97 1011.04 1011.13 1011.17 1011.09 1010.83 1010.36 1009.67 1008.81 1007.81 1006.75 1005.72 1004.78 1004.01 1003.44 1003.09 1002.95 1002.98 1003.13 1003.37 1003.64 1003.91 1004.16 1004.38 1004.57 1004.75 1004.94 1005.15
1013.50 1013.97 1014.35 1014.61 1014.75 1014.74 1014.60 1014.31 1013.92 1013.44 1012.92 1012.43 1011.98 1011.64 1011.42 1011.32 1011.32 1011.38 1011.44 1011.43 1011.29 1010.97 1010.44 1009.69 1008.75 1007.67 1006.53 1005.39 1004.34 1003.45 1002.76 1002.31 1002.08 1002.06 1002.21 1002.47 1002.81 1003.16 1003.51 1003.82 1004.10 1004.35 1004.58 1004.80
1013.36 1013.64 1013.84 1013.95 1013.97 1013.90 1013.75 1013.53 1013.25 1012.93 1012.60 1012.29 1012.02 1011.82 1011.71 1011.67 1011.69 1011.73 1011.75 1011.68 1011.48 1011.11 1010.52 1009.71 1008.72 1007.58 1006.37 1005.14 1003.99 1002.98 1002.18 1001.61 1001.29 1001.20 1001.31 1001.57 1001.94 1002.37 1002.80 1003.22 1003.59 1003.92 1004.22 1004.48
1012.96 1013.04 1013.05 1013.01 1012.93 1012.83 1012.72 1012.60 1012.48 1012.35 1012.23 1012.13 1012.05 1012.00 1011.98 1012.00 1012.03 1012.04 1012.01 1011.88 1011.63 1011.19 1010.56 1009.73 1008.71 1007.54 1006.27 1004.99 1003.75 1002.64 1001.72 1001.03 1000.59 1000.41 1000.46 1000.70 1001.08 1001.55 1002.05 1002.55 1003.02 1003.44 1003.80 1004.11
1012.43 1012.31 1012.14 1011.98 1011.83 1011.73 1011.68 1011.68 1011.73 1011.80 1011.89 1011.98 1012.07 1012.15 1012.21 1012.26 1012.28 1012.26 1012.17 1011.99 1011.68 1011.21 1010.56 1009.73 1008.71 1007.54 1006.27 1004.95 1003.65 1002.46 1001.43 1000.62 1000.07 999.77 999.73 999.91 1000.26 1000.74 1001.28 1001.84 1002.38 1002.88 1003.31 1003.68
1011.89 1011.59 1011.29 1011.03 1010.84 1010.76 1010.78 1010.91 1011.11 1011.36 1011.63 1011.88 1012.10 1012.27 1012.38 1012.43 1012.43 1012.35 1012.21 1011.98 1011.63 1011.16 1010.52 1009.71 1008.74 1007.61 1006.36 1005.04 1003.72 1002.46 1001.35 1000.43 999.75 999.33 999.17 999.26 999.55 1000.00 1000.55 1001.14 1001.72 1002.27 1002.76 1003.18
1011.42 1011.00 1010.60 1010.29 1010.09 1010.04 1010.14 1010.37 1010.71 1011.09 1011.48 1011.84 1012.14 1012.35 1012.48 1012.51 1012.46 1012.34 1012.14 1011.88 1011.52 1011.06 1010.47 1009.72 1008.81 1007.75 1006.56 1005.28 1003.96 1002.67 1001.48 1000.47 999.67 999.12 998.84 998.82 999.02 999.40 999.91 1000.49 1001.09 1001.66 1002.19 1002.65
1011.06 1010.57 1010.13 1009.80 1009.62 1009.62 1009.79 1010.11 1010.53 1011.00 1011.47 1011.88 1012.21 1012.42 1012.52 1012.51 1012.41 1012.24 1012.02 1011.73 1011.39 1010.96 1010.43 1009.76 1008.95 1007.99 1006.87 1005.65 1004.36 1003.06 1001.82 1000.73 999.82 999.15 998.75 998.60 998.69 998.99 999.43 999.98 1000.56 1001.13 1001.67 1002.16
1010.77 1010.28 1009.85 1009.55 1009.42 1009.47 1009.70 1010.08 1010.56 1011.08 1011.57 1011.99 1012.31 1012.49 1012.55 1012.49 1012.35 1012.14 1011.89 1011.61 1011.29 1010.91 1010.45 1009.88 1009.16 1008.30 1007.27 1006.12 1004.86 1003.57 1002.31 1001.16 1000.17 999.40 998.87 998.61 998.59 998.79 999.16 999.64 1000.19 1000.75 1001.28 1001.78
Thickness
5565 5567 5579 5592 5598 5605 5608 5608 5613 5622 5625 5623 5632 5644 5658 5668 5669 5676 5685 5691 5694 5699 5704 5704 5703 5702 5700 5699 5698 5697 5694 5691 5687 5684 5682 5680 5678 5676 5674 5673 5671 5669 5667 5664
5553 5565 5588 5591 5589 5589 5592 5596 5604 5609 5611 5613 5623 5636 5652 5661 5668 5675 5682 5688 5693 5697 5700 5701 5701 5700 5700 5700 5699 5698 5696 5694 5691 5689 5687 5684 5681 5679 5677 5674 5672 5670 5667 5665
5557 5575 5579 5575 5576 5577 5582 5590 5597 5596 5595 5599 5605 5624 5646 5659 5665 5672 5679 5686 5692 5695 5698 5701 5701 5701 5701 5701 5701 5700 5699 5697 5694 5691 5687 5683 5681 5679 5678 5676 5674 5671 5668 5666
5550 5563 5565 5565 5570 5574 5578 5590 5587 5583 5580 5588 5592 5607 5648 5658 5663 5670 5677 5683 5690 5695 5697 5700 5701 5702 5702 5703 5702 5701 5700 5698 5696 5691 5688 5686 5685 5685 5685 5682 5678 5674 5670 5667
5544 5554 5555 5558 5570 5571 5576 5580 5576 5573 5572 5573 5581 5585 5634 5651 5657 5673 5680 5684 5689 5692 5694 5697 5700 5701 5703 5702 5700 5700 5699 5698 5696 5693 5691 5688 5688 5689 5687 5684 5680 5676 5672 5668
5539 5544 5550 5559 5564 5564 5564 5561 5560 5559 5556 5558 5583 5579 5617 5647 5663 5673 5679 5682 5686 5689 5691 5694 5697 5698 5699 5700 5698 5697 5697 5697 5696 5694 5692 5690 5690 5689 5686 5684 5682 5678 5675 5671
5522 5528 5538 5549 5548 5548 5550 5547 5543 5545 5547 5565 5590 5580 5618 5654 5665 5669 5673 5678 5682 5684 5686 5689 5692 5694 5695 5695 5696 5695 5695 5696 5695 5693 5691 5691 5691 5689 5687 5685 5682 5679 5676 5673
5518 5525 5533 5541 5550 5552 5551 5550 5548 5553 5560 5576 5573 5582 5627 5645 5654 5660 5665 5670 5673 5676 5679 5683 5687 5689 5691 5691 5691 5691 5692 5693 5693 5692 5691 5691 5689 5687 5687 5686 5683 5680 5678 5676
5524 5530 5539 5542 5548 5548 5544 5542 5553 5545 5543 5551 5565 5590 5616 5626 5636 5646 5652 5657 5661 5666 5670 5674 5678 5681 5684 5685 5686 5687 5688 5689 5690 5690 5689 5688 5687 5685 5686 5684 5681 5679 5678 5675
5525 5522 5526 5532 5531 5536 5543 5542 5533 5529 5536 5544 5561 5580 5609 5623 5631 5637 5641 5646 5653 5658 5661 5665 5669 5672 5675 5678 5679 5680 5681 5684 5685 5684 5684 5685 5684 5683 5682 5680 5678 5677 5676 5672
5513 5512 5511 5515 5523 5532 5530 5530 5530 5529 5532 5542 5553 5585 5621 5626 5628 5630 5636 5641 5646 5649 5653 5656 5658 5661 5664 5667 5669 5670 5672 5674 5676 5677 5678 5679 5679 5679 5677 5675 5675 5673 5671 5667
5504 5505 5504 5511 5523 5530 5531 5534 5531 5526 5528 5535 5547 5578 5612 5613 5616 5618 5622 5627 5631 5636 5640 5644 5647 5649 5651 5654 5657 5660 5663 5666 5668 5670 5670 5672 5672 5672 5671 5671 5671 5668 5665 5662
5495 5488 5492 5494 5498 5506 5515 5525 5530 5531 5527 5527 5532 5566 5603 5600 5603 5605 5608 5613 5616 5620 5625 5629 5633 5637 5640 5643 5646 5650 5654 5657 5659 5660 5662 5663 5664 5665 5665 5666 5664 5661 5659 5656
5490 5482 5493 5508 5519 5517 5513 5519 5522 5519 5516 5524 5536 5561 5586 5590 5592 5594 5594 5597 5601 5606 5611 5615 5620 5624 5628 5630 5634 5638 5643 5645 5647 5650 5653 5655 5657 5658 5658 5657 5655 5653 5651 5648
5476 5475 5481 5495 5502 5504 5506 5511 5514 5513 5519 5521 5538 5551 5573 5581 5579 5580 5581 5583 5586 5591 5597 5602 5607 5611 5616 5619 5623 5627 5631 5634 5635 5638 5643 5647 5648 5648 5648 5647 5646 5644 5642 5640
5465 5465 5466 5468 5481 5484 5487 5501 5507 5510 5515 5519 5526 5540 5564 5567 5566 5567 5569 5570 5574 5580 5585 5589 5593 5598 5603 5608 5613 5617 5620 5622 5624 5628 5632 5635 5636 5636 5637 5636 5635 5633 5631 5629
5455 5452 5454 5461 5465 5462 5469 5496 5503 5506 5514 5518 5521 5539 5548 5549 5551 5553 5555 5556 5560 5566 5570 5574 5578 5584 5591 5596 5601 5605 5609 5610 5611 5615 5619 5621 5622 5623 5624 5623 5622 5622 5621 5619
5445 5442 5442 5444 5439 5450 5491 5497 5499 5501 5506 5507 5512 5522 5528 5531 5535 5536 5537 5539 5543 5546 5550 5556 5562 5570 5577 5583 5588 5591 5594 5596 5598 5602 5605 5607 5608 5609 5610 5609 5610 5610 5609 5608
5445 5436 5429 5432 5440 5454 5473 5479 5482 5485 5492 5489 5491 5499 5507 5509 5516 5526 5524 5522 5524 5528 5531 5536 5543 5552 5561 5567 5572 5574 5578 5580 5583 5588 5591 5593 5594 5595 5596 5596 5598 5597 5596 5595
5427 5430 5425 5423 5431 5441 5480 5475 5469 5469 5475 5474 5474 5478 5483 5486 5498 5519 5511 5505 5506 5509 5513 5518 5526 5535 5544 5552 5553 5555 5562 5566 5571 5576 5578 5579 5579 5581 5583 5584 5584 5582 5581 5581
5414 5414 5416 5420 5427 5444 5461 5455 5454 5457 5472 5459 5458 5460 5462 5466 5475 5484 5483 5485 5488 5492 5496 5502 5509 5517 5526 5531 5534 5538 5546 5552 5558 5559 5561 5563 5565 5566 5568 5569 5568 5566 5565 5563
5421 5417 5414 5414 5416 5437 5444 5439 5445 5448 5442 5438 5439 5439 5439 5444 5449 5454 5459 5464 5469 5474 5480 5483 5489 5498 5504 5508 5514 5522 5529 5536 5537 5540 5544 5548 5549 5551 5552 5552 5552 5550 5549 5547
5416 5421 5423 5423 5429 5428 5423 5421 5416 5416 5418 5418 5417 5416 5417 5422 5429 5434 5439 5445 5449 5454 5458 5462 5467 5475 5483 5486 5492 5501 5511 5514 5517 5521 5526 5530 5532 5533 5534 5536 5536 5535 5534 5534
5392 5392 5398 5400 5407 5404 5400 5397 5394 5395 5398 5398 5396 5396 5398 5403 5409 5413 5418 5423 5428 5432 5436 5439 5445 5453 5461 5466 5471 5478 5486 5491 5496 5502 5508 5512 5514 5517 5517 5518 5519 5520 5521 5520
5381 5378 5383 5387 5388 5385 5384 5380 5377 5376 5376 5377 5377 5378 5382 5386 5390 5393 5397 5402 5407 5411 5415 5419 5425 5431 5438 5444 5452 5458 5464 5471 5478 5484 5490 5494 5497 5500 5501 5501 5503 5504 5505 5507
5357 5365 5376 5384 5371 5372 5373 5363 5359 5358 5359 5359 5360 5363 5365 5366 5371 5374 5378 5382 5386 5390 5395 5399 5404 5409 5416 5423 5432 5440 5445 5451 5459 5465 5471 5476 5479 5481 5483 5485 5484 5484 5485 5486